Weather History for KCWI - September, 2012

Change the Weather History Date:

Sunday, September 9, 2012

  Actual Average (KDVN) Record (KDVN)
Temperature  
Mean Temperature 60 °F 66 °F  
Max Temperature 71 °F 78 °F - ()
Min Temperature 48 °F 54 °F - ()
Degree Days  
Heating Degree Days 6 2  
Month to date heating degree days 13  
Since 1 July heating degree days 27  
Cooling Degree Days 0 3  
Month to date cooling degree days 33  
Year to date cooling degree days 737  
Growing Degree Days 10 (Base 50)    
Moisture  
Dew Point 47 °F    
Average Humidity 67    
Maximum Humidity 88    
Minimum Humidity 41    
Precipitation  
Precipitation 0.00 in 0.09 in - ()
Month to date precipitation 0.85  
Year to date precipitation 26.67  
Snow  
Snow 0.00 in - - ()
Month to date snowfall  
Since 1 July snowfall  
Since 1 September snowfall  
Snow Depth -    
Sea Level Pressure  
Sea Level Pressure 30.10 in    
Wind  
Wind Speed 9 mph (North)    
Max Wind Speed 16 mph    
Max Gust Speed 20 mph    
Visibility 10 miles    
Events      
T = Trace of Precipitation, MM = Missing Value Source: NWS Daily Summary

Daily Weather History Graph

Daily Weather History Graph

Search for Another Location

Airport or City:

Trip Planner

Search our weather history database for the weather conditions in past years. The results will help you decide how hot, cold, wet, or windy it might be!

Date:

Astronomy

Sep. 09, 2012 Rise Set
Actual Time 6:35 AM CDT 7:20 PM CDT
Civil Twilight 6:07 AM CDT 7:48 PM CDT
Nautical Twilight 5:34 AM CDT 8:21 PM CDT
Astronomical Twilight 4:59 AM CDT 8:56 PM CDT
Moon 12:01 AM CDT (9/9) 3:09 PM CDT (9/9)
Length of Visible Light 13h 40m
Length of Day
12h 44m
Last Quarter, 39% of the Moon is Illuminated
Sep 9
Last Quarter
Sep 15
New
Sep 22
First Quarter
Sep 29
Full
Oct 8
Last Quarter

Hourly Weather History & Observations

Time (CDT) Temp. Dew Point Humidity Pressure Visibility Wind Dir Wind Speed Gust Speed Precip Events Conditions
12:15 AM 55.4 °F 46.4 °F 72% 29.95 in 10.0 mi North 12.7 mph 17.3 mph N/A   Clear
12:35 AM 55.4 °F 46.4 °F 72% 29.96 in 10.0 mi North 11.5 mph - N/A   Clear
12:55 AM 55.4 °F 46.4 °F 72% 29.96 in 10.0 mi NNW 8.1 mph - N/A   Clear
1:15 AM 53.6 °F 46.4 °F 77% 29.96 in 10.0 mi North 9.2 mph - N/A   Clear
1:35 AM 53.6 °F 46.4 °F 77% 29.97 in 10.0 mi NNW 9.2 mph - N/A   Clear
1:55 AM 53.6 °F 46.4 °F 77% 29.97 in 10.0 mi NNW 8.1 mph - N/A   Clear
2:15 AM 53.6 °F 46.4 °F 77% 29.97 in 10.0 mi NNW 8.1 mph - N/A   Clear
2:35 AM 51.8 °F 46.4 °F 82% 29.97 in 10.0 mi NNW 8.1 mph - N/A   Clear
2:55 AM 51.8 °F 46.4 °F 82% 29.98 in 10.0 mi NNW 9.2 mph - N/A   Clear
3:15 AM 51.8 °F 46.4 °F 82% 29.98 in 10.0 mi NNW 8.1 mph - N/A   Clear
3:35 AM 51.8 °F 46.4 °F 82% 29.99 in 10.0 mi NNW 8.1 mph - N/A   Clear
3:55 AM 50.0 °F 46.4 °F 87% 30.00 in 10.0 mi NNW 10.4 mph - N/A   Clear
4:15 AM 50.0 °F 46.4 °F 87% 30.00 in 10.0 mi NNW 6.9 mph - N/A   Clear
4:35 AM 50.0 °F 44.6 °F 82% 30.01 in 10.0 mi NNW 8.1 mph - N/A   Clear
4:55 AM 48.2 °F 44.6 °F 87% 30.01 in 10.0 mi NNW 6.9 mph - N/A   Clear
5:15 AM 48.2 °F 44.6 °F 87% 30.02 in 10.0 mi NNW 5.8 mph - N/A   Clear
5:35 AM 50.0 °F 46.4 °F 87% 30.03 in 10.0 mi NNW 6.9 mph - N/A   Clear
5:55 AM 50.0 °F 44.6 °F 82% 30.04 in 10.0 mi NNW 5.8 mph - N/A   Clear
6:15 AM 48.2 °F 44.6 °F 87% 30.05 in 10.0 mi North 8.1 mph - N/A   Clear
6:35 AM 50.0 °F 46.4 °F 87% 30.06 in 10.0 mi North 6.9 mph - N/A   Scattered Clouds
6:55 AM 50.0 °F 46.4 °F 87% 30.07 in 10.0 mi North 6.9 mph - N/A   Clear
7:15 AM 50.0 °F 46.4 °F 87% 30.09 in 10.0 mi NNW 3.5 mph - N/A   Clear
7:35 AM 51.8 °F 48.2 °F 88% 30.10 in 10.0 mi North 5.8 mph - N/A   Clear
7:55 AM 53.6 °F 48.2 °F 82% 30.10 in 10.0 mi North 6.9 mph - N/A   Clear
8:35 AM 55.4 °F 50.0 °F 82% 30.11 in 10.0 mi North 8.1 mph - N/A   Clear
8:55 AM 57.2 °F 50.0 °F 77% 30.12 in 10.0 mi North 9.2 mph - N/A   Clear
9:15 AM 57.2 °F 50.0 °F 77% 30.13 in 10.0 mi North 10.4 mph - N/A   Partly Cloudy
9:35 AM 59.0 °F 50.0 °F 72% 30.14 in 10.0 mi North 11.5 mph - N/A   Partly Cloudy
9:55 AM 60.8 °F 51.8 °F 72% 30.15 in 10.0 mi North 11.5 mph - N/A   Partly Cloudy
10:35 AM 62.6 °F 48.2 °F 59% 30.16 in 10.0 mi North 10.4 mph 16.1 mph N/A   Clear
11:15 AM 64.4 °F 48.2 °F 56% 30.16 in 10.0 mi North 11.5 mph - N/A   Clear
11:35 AM 66.2 °F 48.2 °F 52% 30.16 in 10.0 mi North 12.7 mph 17.3 mph N/A   Clear
11:55 AM 66.2 °F 48.2 °F 52% 30.16 in 10.0 mi North 9.2 mph 17.3 mph N/A   Clear
12:15 PM 68.0 °F 48.2 °F 49% 30.16 in 10.0 mi North 13.8 mph - N/A   Clear
12:35 PM 68.0 °F 46.4 °F 46% 30.16 in 10.0 mi NNE 10.4 mph 19.6 mph N/A   Clear
12:55 PM 69.8 °F 48.2 °F 46% 30.16 in 10.0 mi NNE 10.4 mph 17.3 mph N/A   Clear
1:15 PM 69.8 °F 46.4 °F 43% 30.16 in 10.0 mi North 12.7 mph - N/A   Partly Cloudy
1:35 PM 69.8 °F 48.2 °F 46% 30.15 in 10.0 mi North 8.1 mph - N/A   Partly Cloudy
1:55 PM 69.8 °F 46.4 °F 43% 30.15 in 10.0 mi North 8.1 mph 17.3 mph N/A   Partly Cloudy
2:15 PM 71.6 °F 46.4 °F 41% 30.15 in 10.0 mi North 9.2 mph - N/A   Scattered Clouds
2:35 PM 71.6 °F 46.4 °F 41% 30.15 in 10.0 mi North 12.7 mph 18.4 mph N/A   Partly Cloudy
2:55 PM 71.6 °F 46.4 °F 41% 30.15 in 10.0 mi North 16.1 mph - N/A   Clear
3:15 PM 71.6 °F 46.4 °F 41% 30.14 in 10.0 mi North 8.1 mph - N/A   Clear
3:35 PM 71.6 °F 46.4 °F 41% 30.14 in 10.0 mi North 11.5 mph - N/A   Clear
4:15 PM 71.6 °F 46.4 °F 41% 30.14 in 10.0 mi NE 9.2 mph - N/A   Clear
4:35 PM 71.6 °F 46.4 °F 41% 30.14 in 10.0 mi NNE 9.2 mph - N/A   Clear
4:55 PM 71.6 °F 46.4 °F 41% 30.14 in 10.0 mi North 8.1 mph - N/A   Clear
5:15 PM 71.6 °F 46.4 °F 41% 30.15 in 10.0 mi North 11.5 mph - N/A   Clear
5:35 PM 71.6 °F 46.4 °F 41% 30.15 in 10.0 mi North 9.2 mph - N/A   Clear
5:55 PM 69.8 °F 46.4 °F 43% 30.15 in 10.0 mi North 6.9 mph - N/A   Clear
6:15 PM 69.8 °F 46.4 °F 43% 30.15 in 10.0 mi North 5.8 mph - N/A   Clear
6:35 PM 68.0 °F 48.2 °F 49% 30.15 in 10.0 mi NNW 4.6 mph - N/A   Clear
6:55 PM 66.2 °F 48.2 °F 52% 30.15 in 10.0 mi NNW 5.8 mph - N/A   Clear
7:15 PM 64.4 °F 48.2 °F 56% 30.15 in 10.0 mi NNW 5.8 mph - N/A   Clear
7:35 PM 62.6 °F 48.2 °F 59% 30.15 in 10.0 mi NNW 6.9 mph - N/A   Clear
7:55 PM 60.8 °F 48.2 °F 63% 30.15 in 10.0 mi North 6.9 mph - N/A   Clear
8:15 PM 57.2 °F 48.2 °F 72% 30.16 in 10.0 mi NNE 5.8 mph - N/A   Clear
8:35 PM 57.2 °F 48.2 °F 72% 30.17 in 10.0 mi NNE 4.6 mph - N/A   Clear
8:55 PM 57.2 °F 48.2 °F 72% 30.17 in 10.0 mi North 4.6 mph - N/A   Clear
9:15 PM 57.2 °F 48.2 °F 72% 30.17 in 10.0 mi North 3.5 mph - N/A   Clear
9:35 PM 57.2 °F 46.4 °F 67% 30.18 in 10.0 mi North 3.5 mph - N/A   Clear
9:55 PM 55.4 °F 48.2 °F 77% 30.18 in 10.0 mi Calm Calm - N/A   Clear
10:15 PM 55.4 °F 48.2 °F 77% 30.18 in 10.0 mi NE 3.5 mph - N/A   Clear
10:35 PM 53.6 °F 48.2 °F 82% 30.18 in 10.0 mi Calm Calm - N/A   Clear
10:55 PM 53.6 °F 46.4 °F 77% 30.19 in 10.0 mi ENE 3.5 mph - N/A   Clear
11:15 PM 51.8 °F 46.4 °F 82% 30.19 in 10.0 mi Calm Calm - N/A   Clear
11:35 PM 51.8 °F 46.4 °F 82% 30.19 in 10.0 mi Calm Calm - N/A   Clear
11:55 PM 51.8 °F 46.4 °F 82% 30.19 in 10.0 mi Calm Calm - N/A   Clear